Rolla, MO

9:48 PM CDT on October 19, 2017 (GMT -0500)
Rolla National

Weather History for KVIH - January, 2013

Change the Weather History Date:

Sunday, January 27, 2013

  Actual Average Record
Temperature  
Mean Temperature 45 °F 32 °F  
Max Temperature 56 °F 42 °F 65 °F (2002)
Min Temperature 33 °F 22 °F -11 °F (1902)
Degree Days  
Heating Degree Days 20 33  
Month to date heating degree days 897 916  
Since 1 July heating degree days 2650 2833  
Cooling Degree Days 0 0  
Month to date cooling degree days 0 0  
Year to date cooling degree days 0 0  
Moisture  
Dew Point 40 °F    
Average Humidity 76    
Maximum Humidity 93    
Minimum Humidity 59    
Precipitation  
Precipitation 0.13 in 0.06 in 0.94 in (1949)
Month to date precipitation 0.53 1.93  
Year to date precipitation 0.53 1.93  
Sea Level Pressure  
Sea Level Pressure 30.03 in    
Wind  
Wind Speed 16 mph (SSE)    
Max Wind Speed 25 mph    
Max Gust Speed 33 mph    
Visibility 9 miles    
Events Rain    
T = Trace of Precipitation, MM = Missing Value Source: NWS Daily Summary

Daily Weather History Graph

Daily Weather History Graph

Search for Another Location

Airport or City:

Trip Planner

Search our weather history database for the weather conditions in past years. The results will help you decide how hot, cold, wet, or windy it might be!

Date:

Astronomy

Jan. 27, 2013 Rise Set
Actual Time 7:15 AM CST 5:24 PM CST
Civil Twilight 6:47 AM CST 5:52 PM CST
Nautical Twilight 6:15 AM CST 6:24 PM CST
Astronomical Twilight 5:44 AM CST 6:55 PM CST
Moon 6:17 PM CST (1/27) 7:09 AM CST (1/27)
Length of Visible Light 11h 05m
Length of Day
10h 09m
Full, 100% of the Moon is Illuminated
Jan 27
Full
Feb 3
Last Quarter
Feb 10
New
Feb 17
First Quarter
Feb 25
Full

Hourly Weather History & Observations

Time (CST) Temp. Windchill Dew Point Humidity Pressure Visibility Wind Dir Wind Speed Gust Speed Precip Events Conditions
12:53 AM 33.1 °F 24.9 °F 23.0 °F 66% 30.22 in 10.0 mi SE 10.4 mph - N/A   Clear
1:53 AM 34.0 °F 27.2 °F 23.0 °F 64% 30.21 in 10.0 mi SE 8.1 mph - N/A   Overcast
2:53 AM 35.1 °F 27.4 °F 23.0 °F 61% 30.20 in 10.0 mi SE 10.4 mph - N/A   Mostly Cloudy
3:53 AM 34.0 °F 25.0 °F 26.1 °F 73% 30.17 in 8.0 mi SSE 12.7 mph - 0.00 in Rain Light Rain
4:53 AM 33.1 °F 23.9 °F 28.0 °F 82% 30.15 in 6.0 mi SE 12.7 mph - 0.03 in   Overcast
5:14 AM 33.8 °F 24.3 °F 28.4 °F 81% 30.13 in 6.0 mi SSE 13.8 mph - 0.01 in Rain Light Rain
5:53 AM 33.8 °F 23.9 °F 30.2 °F 87% 30.09 in 5.0 mi SE 15.0 mph 27.6 mph N/A Rain Light Rain
6:53 AM 35.1 °F 26.4 °F 32.0 °F 89% 30.14 in 5.0 mi SSE 12.7 mph - 0.03 in Rain Light Rain
7:53 AM 36.0 °F 26.3 °F 32.0 °F 86% 30.13 in 8.0 mi SSE 16.1 mph - 0.00 in   Overcast
8:53 AM 37.0 °F 27.0 °F 33.1 °F 86% 30.12 in 10.0 mi SSE 18.4 mph - 0.01 in   Overcast
9:36 AM 37.4 °F 28.5 °F 35.6 °F 93% 30.08 in 8.0 mi SSE 15.0 mph - 0.00 in Rain Light Rain
9:53 AM 37.9 °F 28.9 °F 35.1 °F 89% 30.10 in 6.0 mi SSE 16.1 mph - 0.01 in Rain Light Rain
10:11 AM 39.2 °F 30.2 °F 37.4 °F 93% 30.07 in 6.0 mi SSE 17.3 mph - 0.01 in Rain Light Rain
10:25 AM 39.2 °F 30.2 °F 37.4 °F 93% 30.07 in 6.0 mi South 17.3 mph - 0.01 in Rain Light Rain
10:53 AM 39.9 °F 30.5 °F 37.9 °F 93% 30.08 in 6.0 mi SSE 19.6 mph - 0.02 in   Overcast
11:48 AM 42.8 °F 35.1 °F 39.2 °F 87% 30.02 in 7.0 mi SSE 16.1 mph - N/A   Overcast
11:53 AM 42.1 °F 34.5 °F 39.0 °F 89% 30.04 in 7.0 mi SSE 15.0 mph 23.0 mph N/A   Overcast
12:53 PM 44.1 °F 37.1 °F 41.0 °F 89% 30.01 in 9.0 mi South 15.0 mph 23.0 mph 0.00 in   Overcast
1:53 PM 48.0 °F - 44.1 °F 86% 29.97 in 10.0 mi South 21.9 mph 28.8 mph N/A   Overcast
2:53 PM 51.1 °F - 45.0 °F 80% 29.95 in 10.0 mi South 20.7 mph 29.9 mph N/A   Overcast
3:53 PM 51.1 °F - 46.9 °F 86% 29.93 in 10.0 mi South 15.0 mph - 0.00 in   Overcast
4:53 PM 50.0 °F - 46.9 °F 89% 29.93 in 10.0 mi South 18.4 mph 28.8 mph 0.00 in   Scattered Clouds
4:55 PM 50.0 °F - 46.4 °F 87% 29.91 in 10.0 mi South 18.4 mph 28.8 mph N/A   Mostly Cloudy
5:53 PM 50.0 °F - 46.9 °F 89% 29.93 in 10.0 mi South 17.3 mph 26.5 mph N/A   Overcast
6:08 PM 50.0 °F - 46.4 °F 87% 29.90 in 10.0 mi South 18.4 mph 25.3 mph N/A   Mostly Cloudy
6:45 PM 51.8 °F - 48.2 °F 88% 29.92 in 10.0 mi South 20.7 mph 26.5 mph N/A   Overcast
6:53 PM 52.0 °F - 48.9 °F 89% 29.93 in 10.0 mi South 25.3 mph 33.4 mph N/A   Overcast
7:53 PM 52.0 °F - 48.9 °F 89% 29.95 in 9.0 mi South 21.9 mph 28.8 mph N/A   Overcast
8:32 PM 51.8 °F - 48.2 °F 88% 29.94 in 9.0 mi South 16.1 mph 25.3 mph N/A   Overcast
8:53 PM 52.0 °F - 48.9 °F 89% 29.95 in 9.0 mi South 16.1 mph 23.0 mph N/A   Overcast
9:51 PM 53.6 °F - 50.0 °F 88% 29.93 in 10.0 mi South 17.3 mph 25.3 mph N/A   Overcast
9:53 PM 53.1 °F - 50.0 °F 89% 29.94 in 10.0 mi South 16.1 mph 25.3 mph N/A   Overcast
10:15 PM 53.6 °F - 50.0 °F 88% 29.93 in 10.0 mi South 15.0 mph 23.0 mph N/A   Overcast
10:53 PM 54.0 °F - 51.1 °F 90% 29.95 in 10.0 mi SSW 13.8 mph - N/A   Overcast
11:53 PM 55.9 °F - 52.0 °F 87% 29.94 in 10.0 mi South 16.1 mph - N/A   Overcast